Time,TemperatureF,DewpointF,PressureIn,WindDirection,WindDirectionDegrees,WindSpeedMPH,WindSpeedGustMPH,Humidity,HourlyPrecipIn,Conditions,Clouds,dailyrainin,SoftwareType,DateUTC
2013-11-27 00:02:00,46.2,17.2,24.21,West,270,19.0,23.0,31,0.00,,,0.00,meteohub,2013-11-27 07:02:00,
2013-11-27 00:07:00,46.2,17.2,24.21,West,270,19.0,24.0,31,0.00,,,0.00,meteohub,2013-11-27 07:07:00,
2013-11-27 00:12:00,45.9,17.6,24.21,West,270,18.0,24.0,32,0.00,,,0.00,meteohub,2013-11-27 07:12:00,
2013-11-27 00:17:00,45.7,17.4,24.21,NW,315,21.0,22.0,32,0.00,,,0.00,meteohub,2013-11-27 07:17:00,
2013-11-27 00:22:00,45.7,17.4,24.20,West,270,19.0,22.0,32,0.00,,,0.00,meteohub,2013-11-27 07:22:00,
2013-11-27 00:27:00,45.3,18.0,24.21,West,270,21.0,22.0,33,0.00,,,0.00,meteohub,2013-11-27 07:27:00,
2013-11-27 00:32:00,45.3,18.0,24.21,West,270,17.0,21.0,33,0.00,,,0.00,meteohub,2013-11-27 07:32:00,
2013-11-27 00:37:00,45.3,18.0,24.21,West,270,17.0,21.0,33,0.00,,,0.00,meteohub,2013-11-27 07:37:00,
2013-11-27 00:42:00,45.1,17.8,24.20,NW,315,20.0,21.0,33,0.00,,,0.00,meteohub,2013-11-27 07:42:00,
2013-11-27 00:47:00,45.0,18.3,24.20,SW,225,16.0,21.0,34,0.00,,,0.00,meteohub,2013-11-27 07:47:00,
2013-11-27 00:52:00,45.1,17.8,24.20,West,270,15.0,21.0,33,0.00,,,0.00,meteohub,2013-11-27 07:52:00,
2013-11-27 00:57:00,45.0,18.3,24.20,SW,225,13.0,21.0,34,0.00,,,0.00,meteohub,2013-11-27 07:57:00,
2013-11-27 01:02:00,44.6,18.0,24.21,South,180,11.0,21.0,34,0.00,,,0.00,meteohub,2013-11-27 08:02:00,
2013-11-27 01:07:00,44.6,18.0,24.20,South,180,11.0,20.0,34,0.00,,,0.00,meteohub,2013-11-27 08:07:00,
2013-11-27 01:12:00,44.1,18.1,24.20,SW,225,13.0,19.0,35,0.00,,,0.00,meteohub,2013-11-27 08:12:00,
2013-11-27 01:17:00,43.5,18.3,24.20,SW,225,15.0,15.0,36,0.00,,,0.00,meteohub,2013-11-27 08:17:00,
2013-11-27 01:22:00,44.2,18.3,24.20,WSW,248,14.0,15.0,35,0.00,,,0.00,meteohub,2013-11-27 08:22:00,
2013-11-27 01:27:00,44.2,18.3,24.20,SW,225,11.0,15.0,35,0.00,,,0.00,meteohub,2013-11-27 08:27:00,
2013-11-27 01:32:00,44.4,18.5,24.20,SW,225,9.0,16.0,35,0.00,,,0.00,meteohub,2013-11-27 08:32:00,
2013-11-27 01:37:00,44.6,18.7,24.20,West,270,13.0,16.0,35,0.00,,,0.00,meteohub,2013-11-27 08:37:00,
2013-11-27 01:42:00,45.0,18.3,24.19,West,270,18.0,19.0,34,0.00,,,0.00,meteohub,2013-11-27 08:42:00,
2013-11-27 01:47:00,44.6,18.7,24.19,SW,225,12.0,23.0,35,0.00,,,0.00,meteohub,2013-11-27 08:47:00,
2013-11-27 01:52:00,44.4,18.5,24.19,SW,225,19.0,23.0,35,0.00,,,0.00,meteohub,2013-11-27 08:52:00,
2013-11-27 01:57:00,44.1,18.9,24.19,SW,225,14.0,23.0,36,0.00,,,0.00,meteohub,2013-11-27 08:57:00,
2013-11-27 02:02:00,43.5,19.0,24.19,SW,225,11.0,22.0,37,0.00,,,0.00,meteohub,2013-11-27 09:02:00,
2013-11-27 02:07:00,43.5,19.0,24.19,SW,225,11.0,21.0,37,0.00,,,0.00,meteohub,2013-11-27 09:07:00,
2013-11-27 02:12:00,43.5,19.0,24.19,NW,315,21.0,22.0,37,0.00,,,0.00,meteohub,2013-11-27 09:12:00,
2013-11-27 02:17:00,43.7,18.5,24.19,SW,225,17.0,22.0,36,0.00,,,0.00,meteohub,2013-11-27 09:17:00,
2013-11-27 02:22:00,43.3,18.9,24.19,NW,315,17.0,22.0,37,0.00,,,0.00,meteohub,2013-11-27 09:22:00,
2013-11-27 02:27:00,43.3,18.9,24.19,West,270,16.0,21.0,37,0.00,,,0.00,meteohub,2013-11-27 09:27:00,
2013-11-27 02:32:00,43.9,18.7,24.19,SW,225,18.0,21.0,36,0.00,,,0.00,meteohub,2013-11-27 09:32:00,
2013-11-27 02:37:00,43.7,18.5,24.19,West,270,22.0,22.0,36,0.00,,,0.00,meteohub,2013-11-27 09:37:00,
2013-11-27 02:42:00,43.9,18.7,24.20,West,270,13.0,23.0,36,0.00,,,0.00,meteohub,2013-11-27 09:42:00,
2013-11-27 02:47:00,44.1,18.1,24.19,West,270,17.0,23.0,35,0.00,,,0.00,meteohub,2013-11-27 09:47:00,
2013-11-27 02:52:00,44.1,18.1,24.19,West,270,16.0,23.0,35,0.00,,,0.00,meteohub,2013-11-27 09:52:00,
2013-11-27 02:57:00,43.5,18.3,24.20,NW,315,11.0,23.0,36,0.00,,,0.00,meteohub,2013-11-27 09:57:00,
2013-11-27 03:02:00,43.3,18.1,24.20,NW,315,11.0,21.0,36,0.00,,,0.00,meteohub,2013-11-27 10:02:00,
2013-11-27 03:07:00,43.3,18.1,24.20,NW,315,11.0,18.0,36,0.00,,,0.00,meteohub,2013-11-27 10:07:00,
2013-11-27 03:12:00,43.3,18.9,24.20,NW,315,14.0,17.0,37,0.00,,,0.00,meteohub,2013-11-27 10:12:00,
2013-11-27 03:17:00,43.3,18.9,24.19,NW,315,21.0,21.0,37,0.00,,,0.00,meteohub,2013-11-27 10:17:00,
2013-11-27 03:22:00,43.2,18.7,24.19,NW,315,21.0,23.0,37,0.00,,,0.00,meteohub,2013-11-27 10:22:00,
2013-11-27 03:27:00,43.2,18.7,24.19,NW,315,25.0,25.0,37,0.00,,,0.00,meteohub,2013-11-27 10:27:00,
2013-11-27 03:32:00,43.2,18.7,24.19,NW,315,23.0,31.0,37,0.00,,,0.00,meteohub,2013-11-27 10:32:00,
2013-11-27 03:37:00,42.6,18.9,24.19,NW,315,23.0,31.0,38,0.00,,,0.00,meteohub,2013-11-27 10:37:00,
2013-11-27 03:42:00,42.6,19.4,24.19,NW,315,26.0,31.0,39,0.00,,,0.00,meteohub,2013-11-27 10:42:00,
2013-11-27 03:47:00,42.6,18.9,24.19,NW,315,23.0,28.0,38,0.00,,,0.00,meteohub,2013-11-27 10:47:00,
2013-11-27 03:52:00,42.1,18.9,24.19,NW,315,24.0,28.0,39,0.00,,,0.00,meteohub,2013-11-27 10:52:00,
2013-11-27 03:57:00,42.1,19.6,24.19,NW,315,25.0,28.0,40,0.00,,,0.00,meteohub,2013-11-27 10:57:00,
2013-11-27 04:02:00,41.9,19.4,24.19,NW,315,23.0,27.0,40,0.00,,,0.00,meteohub,2013-11-27 11:02:00,
2013-11-27 04:07:00,41.9,19.4,24.19,NW,315,23.0,26.0,40,0.00,,,0.00,meteohub,2013-11-27 11:07:00,
2013-11-27 04:12:00,42.1,19.6,24.19,NW,315,23.0,27.0,40,0.00,,,0.00,meteohub,2013-11-27 11:12:00,
2013-11-27 04:17:00,41.9,19.9,24.19,NW,315,25.0,28.0,41,0.00,,,0.00,meteohub,2013-11-27 11:17:00,
2013-11-27 04:22:00,41.9,19.9,24.19,NW,315,24.0,28.0,41,0.00,,,0.00,meteohub,2013-11-27 11:22:00,
2013-11-27 04:27:00,41.9,19.9,24.18,WNW,293,29.0,29.0,41,0.00,,,0.00,meteohub,2013-11-27 11:27:00,
2013-11-27 04:32:00,41.7,19.8,24.19,NW,315,25.0,29.0,41,0.00,,,0.00,meteohub,2013-11-27 11:32:00,
2013-11-27 04:37:00,41.5,19.6,24.19,NW,315,23.0,29.0,41,0.00,,,0.00,meteohub,2013-11-27 11:37:00,
2013-11-27 04:42:00,41.5,19.6,24.19,NW,315,27.0,30.0,41,0.00,,,0.00,meteohub,2013-11-27 11:42:00,
2013-11-27 04:47:00,41.4,19.4,24.19,NW,315,27.0,30.0,41,0.00,,,0.00,meteohub,2013-11-27 11:47:00,
2013-11-27 04:52:00,41.4,19.9,24.19,NW,315,26.0,30.0,42,0.00,,,0.00,meteohub,2013-11-27 11:52:00,
2013-11-27 04:57:00,41.4,19.4,24.18,NW,315,28.0,30.0,41,0.00,,,0.00,meteohub,2013-11-27 11:57:00,
2013-11-27 05:02:00,41.2,19.2,24.19,NW,315,27.0,30.0,41,0.00,,,0.00,meteohub,2013-11-27 12:02:00,
2013-11-27 05:07:00,41.2,19.2,24.18,NW,315,27.0,30.0,41,0.00,,,0.00,meteohub,2013-11-27 12:07:00,
2013-11-27 05:12:00,41.2,19.2,24.18,NW,315,33.0,33.0,41,0.00,,,0.00,meteohub,2013-11-27 12:12:00,
2013-11-27 05:17:00,41.0,19.0,24.18,NW,315,33.0,34.0,41,0.00,,,0.00,meteohub,2013-11-27 12:17:00,
2013-11-27 05:22:00,41.4,19.4,24.18,NW,315,31.0,34.0,41,0.00,,,0.00,meteohub,2013-11-27 12:22:00,
2013-11-27 05:27:00,41.5,18.5,24.17,NW,315,33.0,36.0,39,0.00,,,0.00,meteohub,2013-11-27 12:27:00,
2013-11-27 05:32:00,41.5,18.5,24.18,NW,315,31.0,37.0,39,0.00,,,0.00,meteohub,2013-11-27 12:32:00,
2013-11-27 05:37:00,41.4,18.3,24.17,NW,315,30.0,37.0,39,0.00,,,0.00,meteohub,2013-11-27 12:37:00,
2013-11-27 05:42:00,41.2,18.7,24.17,WNW,293,29.0,37.0,40,0.00,,,0.00,meteohub,2013-11-27 12:42:00,
2013-11-27 05:47:00,41.2,18.7,24.17,NW,315,29.0,34.0,40,0.00,,,0.00,meteohub,2013-11-27 12:47:00,
2013-11-27 05:52:00,41.2,18.1,24.18,NW,315,30.0,35.0,39,0.00,,,0.00,meteohub,2013-11-27 12:52:00,
2013-11-27 05:57:00,41.2,18.1,24.18,NW,315,29.0,35.0,39,0.00,,,0.00,meteohub,2013-11-27 12:57:00,
2013-11-27 06:02:00,41.0,18.0,24.18,NW,315,27.0,34.0,39,0.00,,,0.00,meteohub,2013-11-27 13:02:00,
2013-11-27 06:07:00,41.0,18.0,24.17,NW,315,27.0,34.0,39,0.00,,,0.00,meteohub,2013-11-27 13:07:00,
2013-11-27 06:12:00,41.4,17.6,24.18,NW,315,29.0,32.0,38,0.00,,,0.00,meteohub,2013-11-27 13:12:00,
2013-11-27 06:17:00,41.4,17.6,24.18,NW,315,26.0,31.0,38,0.00,,,0.00,meteohub,2013-11-27 13:17:00,
2013-11-27 06:22:00,41.4,17.1,24.18,West,270,25.0,31.0,37,0.00,,,0.00,meteohub,2013-11-27 13:22:00,
2013-11-27 06:27:00,41.4,17.6,24.18,NW,315,22.0,31.0,38,0.00,,,0.00,meteohub,2013-11-27 13:27:00,
2013-11-27 06:32:00,41.2,16.9,24.19,NW,315,23.0,29.0,37,0.00,,,0.00,meteohub,2013-11-27 13:32:00,
2013-11-27 06:37:00,41.2,17.4,24.19,West,270,21.0,29.0,38,0.00,,,0.00,meteohub,2013-11-27 13:37:00,
2013-11-27 06:42:00,41.2,16.9,24.19,NW,315,22.0,25.0,37,0.00,,,0.00,meteohub,2013-11-27 13:42:00,
2013-11-27 06:47:00,41.7,16.2,24.19,NW,315,25.0,25.0,35,0.00,,,0.00,meteohub,2013-11-27 13:47:00,
2013-11-27 06:52:00,41.2,16.2,24.19,NW,315,22.0,28.0,36,0.00,,,0.00,meteohub,2013-11-27 13:52:00,
2013-11-27 06:57:00,41.2,16.2,24.19,West,270,20.0,28.0,36,0.00,,,0.00,meteohub,2013-11-27 13:57:00,
2013-11-27 07:02:00,41.4,16.3,24.19,West,270,23.0,28.0,36,0.00,,,0.00,meteohub,2013-11-27 14:02:00,
2013-11-27 07:07:00,41.4,16.3,24.18,West,270,23.0,24.0,36,0.00,,,0.00,meteohub,2013-11-27 14:07:00,
2013-11-27 07:12:00,41.5,16.0,24.18,WNW,293,26.0,26.0,35,0.00,,,0.00,meteohub,2013-11-27 14:12:00,
2013-11-27 07:17:00,39.0,18.5,24.19,North,0,21.0,26.0,43,0.00,,,0.00,meteohub,2013-11-27 14:17:00,
2013-11-27 07:22:00,37.8,19.4,24.19,North,0,21.0,26.0,47,0.00,,,0.00,meteohub,2013-11-27 14:22:00,
2013-11-27 07:27:00,37.0,19.6,24.20,North,0,17.0,26.0,49,0.00,,,0.00,meteohub,2013-11-27 14:27:00,
2013-11-27 07:32:00,37.9,19.0,24.19,North,0,18.0,27.0,46,0.00,,,0.00,meteohub,2013-11-27 14:32:00,
2013-11-27 07:37:00,38.3,19.4,24.20,North,0,15.0,27.0,46,0.00,,,0.00,meteohub,2013-11-27 14:37:00,
2013-11-27 07:42:00,36.9,19.4,24.20,North,0,11.0,27.0,49,0.00,,,0.00,meteohub,2013-11-27 14:42:00,
2013-11-27 07:47:00,36.5,20.1,24.20,North,0,15.0,25.0,51,0.00,,,0.00,meteohub,2013-11-27 14:47:00,
2013-11-27 07:52:00,36.9,19.9,24.20,North,0,16.0,19.0,50,0.00,,,0.00,meteohub,2013-11-27 14:52:00,
2013-11-27 07:57:00,36.9,19.9,24.20,North,0,17.0,17.0,50,0.00,,,0.00,meteohub,2013-11-27 14:57:00,
2013-11-27 08:02:00,37.6,19.6,24.21,North,0,13.0,18.0,48,0.00,,,0.00,meteohub,2013-11-27 15:02:00,
2013-11-27 08:07:00,37.6,19.6,24.21,North,0,13.0,18.0,48,0.00,,,0.00,meteohub,2013-11-27 15:07:00,
2013-11-27 08:12:00,36.9,19.4,24.21,North,0,11.0,18.0,49,0.00,,,0.00,meteohub,2013-11-27 15:12:00,
2013-11-27 08:17:00,36.7,19.8,24.21,North,0,10.0,13.0,50,0.00,,,0.00,meteohub,2013-11-27 15:17:00,
2013-11-27 08:22:00,36.7,19.8,24.21,North,0,11.0,13.0,50,0.00,,,0.00,meteohub,2013-11-27 15:22:00,
2013-11-27 08:27:00,36.5,20.1,24.21,North,0,9.0,12.0,51,0.00,,,0.00,meteohub,2013-11-27 15:27:00,
2013-11-27 08:32:00,36.5,20.1,24.21,North,0,8.0,12.0,51,0.00,,,0.00,meteohub,2013-11-27 15:32:00,
2013-11-27 08:37:00,36.9,19.4,24.21,North,0,9.0,11.0,49,0.00,,,0.00,meteohub,2013-11-27 15:37:00,
2013-11-27 08:42:00,37.0,19.2,24.21,North,0,8.0,10.0,48,0.00,,,0.00,meteohub,2013-11-27 15:42:00,
2013-11-27 08:47:00,37.4,19.6,24.21,North,0,8.0,10.0,48,0.00,,,0.00,meteohub,2013-11-27 15:47:00,
2013-11-27 08:52:00,37.2,19.4,24.21,North,0,7.0,10.0,48,0.00,,,0.00,meteohub,2013-11-27 15:52:00,
2013-11-27 08:57:00,37.4,19.0,24.21,North,0,7.0,8.0,47,0.00,,,0.00,meteohub,2013-11-27 15:57:00,
2013-11-27 09:02:00,37.4,19.0,24.21,North,0,6.0,8.0,47,0.00,,,0.00,meteohub,2013-11-27 16:02:00,
2013-11-27 09:07:00,37.4,19.0,24.22,North,0,6.0,8.0,47,0.00,,,0.00,meteohub,2013-11-27 16:07:00,
2013-11-27 09:12:00,37.9,18.0,24.22,North,0,5.0,7.0,44,0.00,,,0.00,meteohub,2013-11-27 16:12:00,
2013-11-27 09:17:00,38.3,17.8,24.22,NW,315,4.0,7.0,43,0.00,,,0.00,meteohub,2013-11-27 16:17:00,
2013-11-27 09:22:00,38.5,18.0,24.22,NW,315,4.0,7.0,43,0.00,,,0.00,meteohub,2013-11-27 16:22:00,
2013-11-27 09:27:00,38.8,18.3,24.22,NW,315,4.0,5.0,43,0.00,,,0.00,meteohub,2013-11-27 16:27:00,
2013-11-27 09:32:00,39.2,18.5,24.22,NW,315,4.0,4.0,43,0.00,,,0.00,meteohub,2013-11-27 16:32:00,
2013-11-27 09:37:00,39.4,18.1,24.22,NW,315,4.0,4.0,42,0.00,,,0.00,meteohub,2013-11-27 16:37:00,
2013-11-27 09:42:00,40.1,18.3,24.22,North,0,4.0,4.0,41,0.00,,,0.00,meteohub,2013-11-27 16:42:00,
2013-11-27 09:47:00,41.4,18.9,24.22,North,0,4.0,5.0,40,0.00,,,0.00,meteohub,2013-11-27 16:47:00,
2013-11-27 09:52:00,42.3,19.0,24.22,North,0,6.0,6.0,39,0.00,,,0.00,meteohub,2013-11-27 16:52:00,
2013-11-27 09:57:00,43.2,18.0,24.22,North,0,5.0,6.0,36,0.00,,,0.00,meteohub,2013-11-27 16:57:00,
2013-11-27 10:02:00,43.7,18.5,24.22,NW,315,5.0,6.0,36,0.00,,,0.00,meteohub,2013-11-27 17:02:00,
2013-11-27 10:07:00,43.7,18.5,24.22,NW,315,5.0,6.0,36,0.00,,,0.00,meteohub,2013-11-27 17:07:00,
2013-11-27 10:12:00,45.5,18.1,24.22,North,0,5.0,6.0,33,0.00,,,0.00,meteohub,2013-11-27 17:12:00,
2013-11-27 10:17:00,46.9,18.7,24.22,NE,45,5.0,5.0,32,0.00,,,0.00,meteohub,2013-11-27 17:17:00,
2013-11-27 10:22:00,47.5,19.0,24.22,NE,45,5.0,5.0,32,0.00,,,0.00,meteohub,2013-11-27 17:22:00,
2013-11-27 10:27:00,45.7,18.9,24.22,North,0,6.0,6.0,34,0.00,,,0.00,meteohub,2013-11-27 17:27:00,
2013-11-27 10:32:00,45.3,20.7,24.23,NW,315,5.0,7.0,37,0.00,,,0.00,meteohub,2013-11-27 17:32:00,
2013-11-27 10:37:00,44.8,20.7,24.22,North,0,6.0,7.0,38,0.00,,,0.00,meteohub,2013-11-27 17:37:00,
2013-11-27 10:42:00,43.5,20.8,24.22,NW,315,7.0,7.0,40,0.00,,,0.00,meteohub,2013-11-27 17:42:00,
2013-11-27 10:47:00,43.3,21.2,24.22,NW,315,7.0,8.0,41,0.00,,,0.00,meteohub,2013-11-27 17:47:00,
2013-11-27 10:52:00,42.8,20.7,24.22,NW,315,6.0,8.0,41,0.00,,,0.00,meteohub,2013-11-27 17:52:00,
2013-11-27 10:57:00,42.8,20.7,24.22,NW,315,6.0,8.0,41,0.00,,,0.00,meteohub,2013-11-27 17:57:00,
2013-11-27 11:02:00,43.5,20.8,24.22,NNW,338,4.0,7.0,40,0.00,,,0.00,meteohub,2013-11-27 18:02:00,
2013-11-27 11:07:00,43.5,20.8,24.22,NNW,338,4.0,6.0,40,0.00,,,0.00,meteohub,2013-11-27 18:07:00,
2013-11-27 11:12:00,43.5,21.4,24.22,NW,315,7.0,7.0,41,0.00,,,0.00,meteohub,2013-11-27 18:12:00,
2013-11-27 11:17:00,43.0,20.8,24.22,North,0,7.0,8.0,41,0.00,,,0.00,meteohub,2013-11-27 18:17:00,
2013-11-27 11:22:00,42.6,21.2,24.22,NW,315,7.0,8.0,42,0.00,,,0.00,meteohub,2013-11-27 18:22:00,
2013-11-27 11:27:00,43.3,20.1,24.22,NW,315,4.0,8.0,39,0.00,,,0.00,meteohub,2013-11-27 18:27:00,
2013-11-27 11:32:00,43.9,18.0,24.22,NW,315,7.0,8.0,35,0.00,,,0.00,meteohub,2013-11-27 18:32:00,
2013-11-27 11:37:00,43.9,19.2,24.21,NW,315,7.0,8.0,37,0.00,,,0.00,meteohub,2013-11-27 18:37:00,
2013-11-27 11:42:00,43.5,19.6,24.22,WNW,293,7.0,10.0,38,0.00,,,0.00,meteohub,2013-11-27 18:42:00,
2013-11-27 11:47:00,43.3,20.1,24.22,NW,315,5.0,10.0,39,0.00,,,0.00,meteohub,2013-11-27 18:47:00,
2013-11-27 11:52:00,43.9,19.9,24.22,NW,315,7.0,10.0,38,0.00,,,0.00,meteohub,2013-11-27 18:52:00,
2013-11-27 11:57:00,42.6,18.9,24.22,NW,315,8.0,8.0,38,0.00,,,0.00,meteohub,2013-11-27 18:57:00,
2013-11-27 12:02:00,42.8,19.6,24.21,NW,315,8.0,8.0,39,0.00,,,0.00,meteohub,2013-11-27 19:02:00,
2013-11-27 12:07:00,42.8,19.6,24.21,NW,315,8.0,8.0,39,0.00,,,0.00,meteohub,2013-11-27 19:07:00,
2013-11-27 12:12:00,43.3,20.1,24.22,NW,315,6.0,8.0,39,0.00,,,0.00,meteohub,2013-11-27 19:12:00,
2013-11-27 12:17:00,43.5,19.0,24.21,NW,315,6.0,8.0,37,0.00,,,0.00,meteohub,2013-11-27 19:17:00,
2013-11-27 12:22:00,44.8,19.4,24.21,NW,315,4.0,8.0,36,0.00,,,0.00,meteohub,2013-11-27 19:22:00,
2013-11-27 12:27:00,44.8,18.1,24.21,NW,315,3.0,8.0,34,0.00,,,0.00,meteohub,2013-11-27 19:27:00,
2013-11-27 12:32:00,45.7,16.7,24.21,SE,135,4.0,6.0,31,0.00,,,0.00,meteohub,2013-11-27 19:32:00,
2013-11-27 12:37:00,45.7,17.4,24.21,NW,315,4.0,5.0,32,0.00,,,0.00,meteohub,2013-11-27 19:37:00,
2013-11-27 12:42:00,45.5,17.4,24.20,SW,225,8.0,8.0,32,0.00,,,0.00,meteohub,2013-11-27 19:42:00,
2013-11-27 12:47:00,43.9,18.0,24.21,SE,135,5.0,8.0,35,0.00,,,0.00,meteohub,2013-11-27 19:47:00,
2013-11-27 12:52:00,43.9,18.7,24.21,WNW,293,4.0,8.0,36,0.00,,,0.00,meteohub,2013-11-27 19:52:00,
2013-11-27 12:57:00,43.7,18.5,24.21,West,270,3.0,8.0,36,0.00,,,0.00,meteohub,2013-11-27 19:57:00,
2013-11-27 13:02:00,43.9,18.0,24.21,SW,225,2.0,5.0,35,0.00,,,0.00,meteohub,2013-11-27 20:02:00,
2013-11-27 13:07:00,43.9,18.0,24.20,SW,225,2.0,4.0,35,0.00,,,0.00,meteohub,2013-11-27 20:07:00,
2013-11-27 13:12:00,44.1,16.7,24.20,SW,225,4.0,4.0,33,0.00,,,0.00,meteohub,2013-11-27 20:12:00,
2013-11-27 13:17:00,43.5,17.1,24.20,NW,315,2.0,4.0,34,0.00,,,0.00,meteohub,2013-11-27 20:17:00,
2013-11-27 13:22:00,43.3,17.6,24.20,NW,315,2.0,5.0,35,0.00,,,0.00,meteohub,2013-11-27 20:22:00,
2013-11-27 13:27:00,43.5,17.1,24.20,SW,225,5.0,5.0,34,0.00,,,0.00,meteohub,2013-11-27 20:27:00,
2013-11-27 13:32:00,44.2,17.6,24.20,SW,225,4.0,5.0,34,0.00,,,0.00,meteohub,2013-11-27 20:32:00,
2013-11-27 13:37:00,44.6,18.0,24.20,WNW,293,4.0,5.0,34,0.00,,,0.00,meteohub,2013-11-27 20:37:00,
2013-11-27 13:42:00,43.7,17.8,24.20,NW,315,4.0,5.0,35,0.00,,,0.00,meteohub,2013-11-27 20:42:00,
2013-11-27 13:47:00,41.4,18.9,24.20,North,0,11.0,11.0,40,0.00,,,0.00,meteohub,2013-11-27 20:47:00,
2013-11-27 13:52:00,40.6,19.4,24.20,NE,45,5.0,11.0,42,0.00,,,0.00,meteohub,2013-11-27 20:52:00,
2013-11-27 13:57:00,40.5,19.8,24.20,North,0,6.0,11.0,43,0.00,,,0.00,meteohub,2013-11-27 20:57:00,
2013-11-27 14:02:00,40.8,20.1,24.20,North,0,5.0,11.0,43,0.00,,,0.00,meteohub,2013-11-27 21:02:00,
2013-11-27 14:07:00,40.8,20.1,24.20,North,0,5.0,7.0,43,0.00,,,0.00,meteohub,2013-11-27 21:07:00,
2013-11-27 14:12:00,44.1,18.1,24.20,SW,225,4.0,7.0,35,0.00,,,0.00,meteohub,2013-11-27 21:12:00,
2013-11-27 14:17:00,43.7,17.8,24.20,West,270,4.0,6.0,35,0.00,,,0.00,meteohub,2013-11-27 21:17:00,
2013-11-27 14:22:00,43.7,17.8,24.19,West,270,4.0,6.0,35,0.00,,,0.00,meteohub,2013-11-27 21:22:00,
2013-11-27 14:27:00,43.9,18.0,24.19,West,270,5.0,6.0,35,0.00,,,0.00,meteohub,2013-11-27 21:27:00,
2013-11-27 14:32:00,43.7,17.8,24.19,SW,225,4.0,6.0,35,0.00,,,0.00,meteohub,2013-11-27 21:32:00,
2013-11-27 14:37:00,43.0,17.8,24.19,West,270,3.0,6.0,36,0.00,,,0.00,meteohub,2013-11-27 21:37:00,
2013-11-27 14:42:00,43.0,18.5,24.19,West,270,5.0,6.0,37,0.00,,,0.00,meteohub,2013-11-27 21:42:00,
2013-11-27 14:47:00,43.3,18.9,24.19,SW,225,3.0,6.0,37,0.00,,,0.00,meteohub,2013-11-27 21:47:00,
2013-11-27 14:52:00,43.3,18.1,24.19,SW,225,3.0,5.0,36,0.00,,,0.00,meteohub,2013-11-27 21:52:00,
2013-11-27 14:57:00,43.3,18.1,24.19,SW,225,4.0,5.0,36,0.00,,,0.00,meteohub,2013-11-27 21:57:00,
2013-11-27 15:02:00,43.2,17.4,24.19,SW,225,6.0,6.0,35,0.00,,,0.00,meteohub,2013-11-27 22:02:00,
2013-11-27 15:07:00,43.2,17.4,24.19,SW,225,6.0,6.0,35,0.00,,,0.00,meteohub,2013-11-27 22:07:00,
2013-11-27 15:12:00,42.1,18.9,24.19,West,270,2.0,6.0,39,0.00,,,0.00,meteohub,2013-11-27 22:12:00,
2013-11-27 15:17:00,41.9,18.1,24.19,SW,225,3.0,6.0,38,0.00,,,0.00,meteohub,2013-11-27 22:17:00,
2013-11-27 15:22:00,41.2,18.1,24.19,SE,135,3.0,6.0,39,0.00,,,0.00,meteohub,2013-11-27 22:22:00,
2013-11-27 15:27:00,40.8,18.9,24.19,SE,135,2.0,4.0,41,0.00,,,0.00,meteohub,2013-11-27 22:27:00,
2013-11-27 15:32:00,40.5,18.7,24.19,South,180,3.0,4.0,41,0.00,,,0.00,meteohub,2013-11-27 22:32:00,
2013-11-27 15:37:00,40.3,18.5,24.19,South,180,3.0,4.0,41,0.00,,,0.00,meteohub,2013-11-27 22:37:00,
2013-11-27 15:42:00,40.1,18.9,24.19,South,180,2.0,3.0,42,0.00,,,0.00,meteohub,2013-11-27 22:42:00,
2013-11-27 15:47:00,39.7,18.5,24.20,SSE,158,2.0,3.0,42,0.00,,,0.00,meteohub,2013-11-27 22:47:00,
2013-11-27 15:52:00,39.6,18.9,24.19,South,180,3.0,3.0,43,0.00,,,0.00,meteohub,2013-11-27 22:52:00,
2013-11-27 15:57:00,39.2,18.5,24.19,South,180,3.0,3.0,43,0.00,,,0.00,meteohub,2013-11-27 22:57:00,
2013-11-27 16:02:00,39.2,18.5,24.19,SSE,158,2.0,4.0,43,0.00,,,0.00,meteohub,2013-11-27 23:02:00,
2013-11-27 16:07:00,39.2,18.5,24.20,SSE,158,2.0,4.0,43,0.00,,,0.00,meteohub,2013-11-27 23:07:00,
2013-11-27 16:12:00,38.5,18.0,24.19,SE,135,2.0,3.0,43,0.00,,,0.00,meteohub,2013-11-27 23:12:00,
2013-11-27 16:17:00,38.1,17.6,24.19,SE,135,0.0,2.0,43,0.00,,,0.00,meteohub,2013-11-27 23:17:00,
2013-11-27 16:22:00,37.8,17.2,24.19,West,270,2.0,2.0,43,0.00,,,0.00,meteohub,2013-11-27 23:22:00,
2013-11-27 16:27:00,37.8,17.2,24.19,West,270,3.0,3.0,43,0.00,,,0.00,meteohub,2013-11-27 23:27:00,
2013-11-27 16:32:00,38.1,17.6,24.19,West,270,4.0,4.0,43,0.00,,,0.00,meteohub,2013-11-27 23:32:00,
2013-11-27 16:37:00,38.5,17.4,24.19,West,270,3.0,4.0,42,0.00,,,0.00,meteohub,2013-11-27 23:37:00,
2013-11-27 16:42:00,38.3,17.2,24.19,West,270,3.0,4.0,42,0.00,,,0.00,meteohub,2013-11-27 23:42:00,
2013-11-27 16:47:00,38.1,17.6,24.19,SW,225,3.0,4.0,43,0.00,,,0.00,meteohub,2013-11-27 23:47:00,
2013-11-27 16:52:00,37.9,17.4,24.19,SW,225,4.0,4.0,43,0.00,,,0.00,meteohub,2013-11-27 23:52:00,
2013-11-27 16:57:00,38.1,17.6,24.20,South,180,5.0,5.0,43,0.00,,,0.00,meteohub,2013-11-27 23:57:00,
2013-11-27 17:02:00,37.9,17.4,24.19,South,180,4.0,5.0,43,0.00,,,0.00,meteohub,2013-11-28 00:02:00,
2013-11-27 17:07:00,37.9,17.4,24.19,South,180,4.0,5.0,43,0.00,,,0.00,meteohub,2013-11-28 00:07:00,
2013-11-27 17:12:00,37.6,18.1,24.19,South,180,4.0,5.0,45,0.00,,,0.00,meteohub,2013-11-28 00:12:00,
2013-11-27 17:17:00,37.6,18.1,24.20,South,180,4.0,4.0,45,0.00,,,0.00,meteohub,2013-11-28 00:17:00,
2013-11-27 17:22:00,37.4,18.0,24.20,South,180,3.0,5.0,45,0.00,,,0.00,meteohub,2013-11-28 00:22:00,
2013-11-27 17:27:00,37.4,18.5,24.20,South,180,4.0,5.0,46,0.00,,,0.00,meteohub,2013-11-28 00:27:00,
2013-11-27 17:32:00,37.6,18.1,24.20,South,180,6.0,6.0,45,0.00,,,0.00,meteohub,2013-11-28 00:32:00,
2013-11-27 17:37:00,37.9,18.0,24.20,South,180,4.0,6.0,44,0.00,,,0.00,meteohub,2013-11-28 00:37:00,
2013-11-27 17:42:00,38.1,18.1,24.20,South,180,4.0,6.0,44,0.00,,,0.00,meteohub,2013-11-28 00:42:00,
2013-11-27 17:47:00,38.3,17.8,24.20,South,180,5.0,6.0,43,0.00,,,0.00,meteohub,2013-11-28 00:47:00,
2013-11-27 17:57:00,37.8,17.8,24.20,South,180,5.0,7.0,44,0.00,,,0.00,meteohub,2013-11-28 00:57:00,
2013-11-27 18:02:00,37.9,18.0,24.20,South,180,5.0,7.0,44,0.00,,,0.00,meteohub,2013-11-28 01:02:00,
2013-11-27 18:07:00,37.9,18.0,24.20,South,180,5.0,7.0,44,0.00,,,0.00,meteohub,2013-11-28 01:07:00,
2013-11-27 18:12:00,37.6,18.1,24.20,South,180,4.0,6.0,45,0.00,,,0.00,meteohub,2013-11-28 01:12:00,
2013-11-27 18:17:00,37.8,18.3,24.20,South,180,7.0,7.0,45,0.00,,,0.00,meteohub,2013-11-28 01:17:00,
2013-11-27 18:22:00,37.9,18.5,24.20,SSW,203,7.0,7.0,45,0.00,,,0.00,meteohub,2013-11-28 01:22:00,
2013-11-27 18:27:00,37.8,18.3,24.20,SW,225,7.0,8.0,45,0.00,,,0.00,meteohub,2013-11-28 01:27:00,
2013-11-27 18:32:00,37.8,18.3,24.20,South,180,7.0,8.0,45,0.00,,,0.00,meteohub,2013-11-28 01:32:00,
2013-11-27 18:37:00,37.6,18.7,24.21,South,180,7.0,8.0,46,0.00,,,0.00,meteohub,2013-11-28 01:37:00,
2013-11-27 18:42:00,37.6,18.1,24.20,South,180,7.0,8.0,45,0.00,,,0.00,meteohub,2013-11-28 01:42:00,
2013-11-27 18:47:00,37.2,18.3,24.20,South,180,7.0,8.0,46,0.00,,,0.00,meteohub,2013-11-28 01:47:00,
2013-11-27 18:52:00,36.7,18.3,24.20,South,180,7.0,8.0,47,0.00,,,0.00,meteohub,2013-11-28 01:52:00,
2013-11-27 18:57:00,36.5,18.1,24.20,South,180,6.0,8.0,47,0.00,,,0.00,meteohub,2013-11-28 01:57:00,
2013-11-27 19:02:00,36.7,18.3,24.21,South,180,7.0,8.0,47,0.00,,,0.00,meteohub,2013-11-28 02:02:00,
2013-11-27 19:07:00,36.7,18.3,24.20,South,180,7.0,7.0,47,0.00,,,0.00,meteohub,2013-11-28 02:07:00,
2013-11-27 19:12:00,36.7,17.8,24.21,South,180,5.0,7.0,46,0.00,,,0.00,meteohub,2013-11-28 02:12:00,
2013-11-27 19:17:00,37.0,18.1,24.20,South,180,6.0,7.0,46,0.00,,,0.00,meteohub,2013-11-28 02:17:00,
2013-11-27 19:22:00,37.4,16.9,24.21,SW,225,8.0,8.0,43,0.00,,,0.00,meteohub,2013-11-28 02:22:00,
2013-11-27 19:27:00,37.2,16.7,24.21,SW,225,7.0,8.0,43,0.00,,,0.00,meteohub,2013-11-28 02:27:00,
2013-11-27 19:32:00,37.6,16.0,24.21,SW,225,6.0,8.0,41,0.00,,,0.00,meteohub,2013-11-28 02:32:00,
2013-11-27 19:37:00,37.6,17.1,24.20,South,180,4.0,8.0,43,0.00,,,0.00,meteohub,2013-11-28 02:37:00,
2013-11-27 19:42:00,36.9,17.4,24.21,South,180,4.0,8.0,45,0.00,,,0.00,meteohub,2013-11-28 02:42:00,
2013-11-27 19:47:00,36.7,17.8,24.20,South,180,4.0,7.0,46,0.00,,,0.00,meteohub,2013-11-28 02:47:00,
2013-11-27 19:52:00,36.5,18.1,24.20,South,180,5.0,5.0,47,0.00,,,0.00,meteohub,2013-11-28 02:52:00,
2013-11-27 19:57:00,36.3,18.0,24.20,South,180,5.0,5.0,47,0.00,,,0.00,meteohub,2013-11-28 02:57:00,
2013-11-27 20:02:00,36.3,17.6,24.20,South,180,6.0,6.0,46,0.00,,,0.00,meteohub,2013-11-28 03:02:00,
2013-11-27 20:07:00,36.3,17.6,24.20,South,180,6.0,6.0,46,0.00,,,0.00,meteohub,2013-11-28 03:07:00,
2013-11-27 20:12:00,36.1,17.8,24.20,South,180,6.0,7.0,47,0.00,,,0.00,meteohub,2013-11-28 03:12:00,
2013-11-27 20:17:00,35.1,18.3,24.20,SSE,158,5.0,7.0,50,0.00,,,0.00,meteohub,2013-11-28 03:17:00,
2013-11-27 20:22:00,34.9,18.1,24.21,South,180,5.0,7.0,50,0.00,,,0.00,meteohub,2013-11-28 03:22:00,
2013-11-27 20:27:00,35.1,18.3,24.21,South,180,5.0,6.0,50,0.00,,,0.00,meteohub,2013-11-28 03:27:00,
2013-11-27 20:32:00,35.6,18.3,24.20,South,180,8.0,8.0,49,0.00,,,0.00,meteohub,2013-11-28 03:32:00,
2013-11-27 20:37:00,36.0,17.6,24.20,South,180,9.0,9.0,47,0.00,,,0.00,meteohub,2013-11-28 03:37:00,
2013-11-27 20:42:00,35.6,17.8,24.20,South,180,10.0,10.0,48,0.00,,,0.00,meteohub,2013-11-28 03:42:00,
2013-11-27 20:47:00,35.8,18.0,24.20,SSW,203,8.0,10.0,48,0.00,,,0.00,meteohub,2013-11-28 03:47:00,
2013-11-27 20:52:00,35.6,18.3,24.20,South,180,8.0,10.0,49,0.00,,,0.00,meteohub,2013-11-28 03:52:00,
2013-11-27 20:57:00,35.6,18.3,24.20,South,180,8.0,10.0,49,0.00,,,0.00,meteohub,2013-11-28 03:57:00,
2013-11-27 21:02:00,35.4,18.1,24.20,South,180,7.0,10.0,49,0.00,,,0.00,meteohub,2013-11-28 04:02:00,
2013-11-27 21:07:00,35.4,18.1,24.20,South,180,7.0,8.0,49,0.00,,,0.00,meteohub,2013-11-28 04:07:00,
2013-11-27 21:12:00,35.6,18.3,24.20,South,180,6.0,8.0,49,0.00,,,0.00,meteohub,2013-11-28 04:12:00,
2013-11-27 21:17:00,35.6,18.3,24.20,South,180,7.0,8.0,49,0.00,,,0.00,meteohub,2013-11-28 04:17:00,
2013-11-27 21:22:00,35.2,18.0,24.20,South,180,7.0,8.0,49,0.00,,,0.00,meteohub,2013-11-28 04:22:00,
2013-11-27 21:27:00,34.9,18.1,24.20,South,180,7.0,8.0,50,0.00,,,0.00,meteohub,2013-11-28 04:27:00,
2013-11-27 21:32:00,34.7,18.5,24.20,South,180,7.0,8.0,51,0.00,,,0.00,meteohub,2013-11-28 04:32:00,
2013-11-27 21:37:00,34.5,18.3,24.20,South,180,8.0,8.0,51,0.00,,,0.00,meteohub,2013-11-28 04:37:00,
2013-11-27 21:42:00,34.5,18.3,24.20,South,180,10.0,10.0,51,0.00,,,0.00,meteohub,2013-11-28 04:42:00,
2013-11-27 21:47:00,34.9,18.1,24.20,South,180,8.0,10.0,50,0.00,,,0.00,meteohub,2013-11-28 04:47:00,
2013-11-27 21:52:00,35.1,17.8,24.20,South,180,7.0,10.0,49,0.00,,,0.00,meteohub,2013-11-28 04:52:00,
2013-11-27 21:57:00,34.9,18.1,24.20,South,180,9.0,10.0,50,0.00,,,0.00,meteohub,2013-11-28 04:57:00,
2013-11-27 22:02:00,34.9,18.1,24.20,South,180,8.0,9.0,50,0.00,,,0.00,meteohub,2013-11-28 05:02:00,
2013-11-27 22:07:00,34.9,18.1,24.20,South,180,8.0,9.0,50,0.00,,,0.00,meteohub,2013-11-28 05:07:00,
2013-11-27 22:12:00,34.5,18.3,24.20,South,180,7.0,9.0,51,0.00,,,0.00,meteohub,2013-11-28 05:12:00,
2013-11-27 22:17:00,34.3,18.1,24.20,South,180,8.0,8.0,51,0.00,,,0.00,meteohub,2013-11-28 05:17:00,
2013-11-27 22:22:00,34.5,18.3,24.20,South,180,8.0,8.0,51,0.00,,,0.00,meteohub,2013-11-28 05:22:00,
2013-11-27 22:27:00,34.0,18.1,24.20,South,180,8.0,8.0,52,0.00,,,0.00,meteohub,2013-11-28 05:27:00,
2013-11-27 22:32:00,33.8,18.5,24.20,South,180,9.0,9.0,53,0.00,,,0.00,meteohub,2013-11-28 05:32:00,
2013-11-27 22:37:00,33.6,18.3,24.20,South,180,9.0,9.0,53,0.00,,,0.00,meteohub,2013-11-28 05:37:00,
2013-11-27 22:42:00,33.4,18.5,24.20,South,180,11.0,11.0,54,0.00,,,0.00,meteohub,2013-11-28 05:42:00,
2013-11-27 22:47:00,32.9,18.5,24.20,South,180,11.0,11.0,55,0.00,,,0.00,meteohub,2013-11-28 05:47:00,
2013-11-27 22:52:00,32.5,18.5,24.20,South,180,11.0,11.0,56,0.00,,,0.00,meteohub,2013-11-28 05:52:00,
2013-11-27 22:57:00,32.5,18.5,24.20,South,180,11.0,11.0,56,0.00,,,0.00,meteohub,2013-11-28 05:57:00,
2013-11-27 23:02:00,32.4,18.9,24.20,South,180,11.0,11.0,57,0.00,,,0.00,meteohub,2013-11-28 06:02:00,
2013-11-27 23:07:00,32.4,18.9,24.20,South,180,11.0,11.0,57,0.00,,,0.00,meteohub,2013-11-28 06:07:00,
2013-11-27 23:12:00,31.5,19.2,24.20,South,180,12.0,13.0,60,0.00,,,0.00,meteohub,2013-11-28 06:12:00,
2013-11-27 23:17:00,31.6,19.4,24.20,South,180,12.0,13.0,60,0.00,,,0.00,meteohub,2013-11-28 06:17:00,
2013-11-27 23:22:00,31.3,19.4,24.20,South,180,14.0,14.0,61,0.00,,,0.00,meteohub,2013-11-28 06:22:00,
2013-11-27 23:27:00,30.9,19.4,24.20,South,180,12.0,14.0,62,0.00,,,0.00,meteohub,2013-11-28 06:27:00,
2013-11-27 23:32:00,30.7,19.2,24.20,South,180,14.0,14.0,62,0.00,,,0.00,meteohub,2013-11-28 06:32:00,
2013-11-27 23:37:00,30.2,19.0,24.20,South,180,15.0,15.0,63,0.00,,,0.00,meteohub,2013-11-28 06:37:00,
2013-11-27 23:42:00,30.0,19.4,24.20,South,180,15.0,15.0,64,0.00,,,0.00,meteohub,2013-11-28 06:42:00,
2013-11-27 23:47:00,30.0,19.4,24.20,South,180,15.0,15.0,64,0.00,,,0.00,meteohub,2013-11-28 06:47:00,
2013-11-27 23:52:00,29.8,19.6,24.20,South,180,16.0,16.0,65,0.00,,,0.00,meteohub,2013-11-28 06:52:00,
2013-11-27 23:57:00,29.8,19.6,24.19,South,180,15.0,16.0,65,0.00,,,0.00,meteohub,2013-11-28 06:57:00,